• Join FlightAware (Why Join?)
  • Login
  • US Flag GB Flag 
01:58 EST


 

Airport Tracker/Info


-or-


 

Live Flight TrackerFlight Track Log ✈ EJA929 ✈ 12-Jul-2013 ✈ KHOU - KMIA

Flight Track Log - Related Links

Times and Time Zones

All times are in EDT time to prevent confusion due to time zone crossing. See the EJA929 flight status page for this flight to view local times or setup timezone preferences in your user account.

Time Position Orientation Groundspeed Altitude Reporting Facility
EDT Latitude Longitude Course Direction KTS MPH feet Rate Location/Type
12:33 29.6333 -95.2653 143° Southeast 173 199 700  Level Houston Center
12:34 29.5997 -95.2361 143° Southeast 203 234 3,300 3,632 Climbing Houston Center
12:35 29.5800 -95.1775 111° Southeast 215 247 7,600 4,032 Climbing Houston Center
12:36 29.5958 -95.0958 77° East 226 260 11,700 2,952 Climbing Houston Center
12:37 29.6119 -95.0014 79° East 304 350 13,700 2,226 Climbing Houston Center
12:38 29.6311 -94.8861 79° East 362 417 16,300 2,129 Climbing Houston Center
12:39 29.6506 -94.7667 79° East 379 436 18,100 1,452 Climbing Houston Center
12:40 29.6711 -94.6442 79° East 390 449 19,300 1,113 Climbing Houston Center
12:41 29.6922 -94.5192 79° East 398 458 20,400 1,161 Climbing Houston Center
12:42 29.7164 -94.3653 80° East 409 471 21,700 1,065 Climbing Houston Center
12:43 29.7086 -94.2333 94° East 422 486 22,600 1,210 Climbing Houston Center
12:44 29.6928 -94.0936 97° East 430 495 24,200 1,680 Climbing Houston Center
12:45 29.6842 -93.9647 94° East 411 473 26,100 1,536 Climbing Houston Center
12:46 29.6847 -93.8347 90° East 414 476 27,400 1,161 Climbing Houston Center
12:47 29.6836 -93.7000 91° East 424 488 28,500 1,065 Climbing Houston Center
12:48 29.6806 -93.5344 91° East 436 502 29,600 1,016 Climbing Houston Center
12:49 29.6786 -93.3911 91° East 444 511 30,600 919 Climbing Houston Center
12:50 29.6767 -93.2431 91° East 457 526 31,500 919 Climbing Houston Center
12:51 29.6742 -93.0922 91° East 470 541 32,500 871 Climbing Houston Center
12:52 29.6711 -92.9394 91° East 480 552 33,300 1,488 Climbing Houston Center
12:54 29.6694 -92.7558 91° East 479 551 35,600 1,984 Climbing Houston Center
12:55 29.6644 -92.6075 92° East 470 541 37,400 1,659 Climbing Houston Center
12:56 29.6347 -92.4636 103° East 467 537 39,000 768 Climbing Houston Center
12:57 29.5961 -92.3147 107° East 481 554 39,000  Level Houston Center
12:58 29.5550 -92.1572 107° East 510 587 39,000 194 Level Houston Center
12:59 29.5036 -91.9661 107° East 524 603 39,400 532 Climbing Houston Center
13:00 29.4611 -91.8097 107° East 517 595 40,100 726 Climbing Houston Center
13:01 29.4217 -91.6597 107° East 515 593 40,900 387 Climbing Houston Center
13:02 29.3786 -91.5044 108° East 513 590 40,900 48 Level Houston Center
13:03 29.3269 -91.3153 107° East 520 598 41,000 48 Climbing Houston Center
13:04 29.2842 -91.1567 107° East 522 601 41,000  Level Houston Center
13:05 29.2417 -91.0000 107° East 519 597 41,000  Level Houston Center
13:06 29.1972 -90.8442 108° East 517 595 41,000  Level Houston Center
13:07 29.1542 -90.6869 107° East 520 598 41,000  Level Houston Center
13:08 29.1097 -90.5289 108° East 524 603 41,000  Level Houston Center
13:09 29.0567 -90.3406 108° East 521 600 41,000  Level Houston Center
13:10 29.0122 -90.1836 108° East 523 602 41,000  Level Houston Center
13:11 28.9728 -90.0233 106° East 525 604 41,000  Level Houston Center
13:12 28.9378 -89.8633 104° East 524 603 41,000  Level Houston Center
13:13 28.9017 -89.7039 104° East 523 602 41,000  Level Houston Center
13:14 28.8575 -89.5122 105° East 526 605 41,000  Level Houston Center
13:15 28.8206 -89.3542 105° East 520 598 41,000  Level Houston Center
13:16 28.7842 -89.1939 104° East 523 602 41,000  Level Houston Center
13:17 28.7478 -89.0378 105° East 516 594 41,000  Level Houston Center
13:18 28.7106 -88.8794 105° East 519 597 41,000  Level Houston Center
13:19 28.6711 -88.7219 106° East 520 598 41,000  Level Houston Center
13:20 28.6108 -88.5381 110° East 520 598 41,000  Level Houston Center
13:21 28.5597 -88.3853 111° Southeast 519 597 41,000  Level Houston Center
13:22 28.5089 -88.2314 111° Southeast 521 600 41,000  Level Houston Center
13:24 28.4606 -88.0875 111° Southeast 524 603 41,000  Level Houston Center
13:25 28.3983 -87.9025 111° Southeast 523 602 41,000  Level Houston Center
13:26 28.3461 -87.7492 111° Southeast 523 602 41,000  Level Houston Center
13:27 28.2944 -87.5950 111° Southeast 526 605 41,000  Level Houston Center
13:28 28.2417 -87.4417 111° Southeast 525 604 41,000  Level Houston Center
13:29 28.1894 -87.2881 111° Southeast 525 604 41,000  Level Houston Center
13:30 28.1272 -87.1047 111° Southeast 522 601 41,000 54 Level Houston Center
13:31 28.0850 -86.9856 112° Southeast 520 598 41,100 545 Climbing Jacksonville Center
13:32 28.0333 -86.8353 111° Southeast 520 598 42,000 750 Climbing Jacksonville Center
13:33 27.9814 -86.6853 111° Southeast 511 588 42,600 500 Climbing Jacksonville Center
13:34 27.9292 -86.5400 112° Southeast 511 588 43,000 200 Climbing Jacksonville Center
13:35 27.8792 -86.3928 111° Southeast 511 588 43,000 -50 Level Jacksonville Center
13:36 27.8247 -86.2431 112° Southeast 500 575 42,900  Descending Jacksonville Center
13:37 27.7739 -86.1053 113° Southeast 500 575 43,000 50 Climbing Jacksonville Center
13:38 27.7194 -85.9489 111° Southeast 507 583 43,000  Level Jacksonville Center
13:40 27.5794 -85.5747 113° Southeast 531 611 43,000  Level Miami Center
13:41 27.5342 -85.4286 109° East 531 611 43,000  Level Miami Center
13:42 27.4783 -85.2819 113° Southeast 526 605 43,000  Level Miami Center
13:43 27.4306 -85.1358 110° East 526 605 43,000  Level Miami Center
13:44 27.3700 -84.9914 115° Southeast 519 597 43,000  Level Miami Center
13:45 27.3197 -84.8456 111° Southeast 505 581 43,000  Level Miami Center
13:46 27.2692 -84.7022 112° Southeast 499 574 43,000  Level Miami Center
13:47 27.2247 -84.5614 110° East 494 568 43,000  Level Miami Center
13:48 27.1633 -84.4175 116° Southeast 488 562 43,000  Level Miami Center
13:49 27.1144 -84.2769 111° Southeast 488 562 43,000  Level Miami Center
13:50 27.0572 -84.1311 114° Southeast 488 562 43,000  Level Miami Center
13:51 27.0036 -83.9928 113° Southeast 488 562 43,000  Level Miami Center
13:52 26.9481 -83.8497 114° Southeast 488 562 43,000  Level Miami Center
13:53 26.8964 -83.7072 112° Southeast 488 562 43,000  Level Miami Center
13:54 26.8444 -83.5669 113° Southeast 488 562 43,000  Level Miami Center
13:55 26.7925 -83.4267 113° Southeast 488 562 43,000  Level Miami Center
13:56 26.7364 -83.2842 114° Southeast 488 562 43,000 -600 Level Miami Center
13:57 26.6839 -83.1442 113° Southeast 488 562 41,800 -1,700 Descending Miami Center
13:58 26.6314 -83.0114 114° Southeast 482 555 39,600 -2,300 Descending Miami Center
13:59 26.5786 -82.8717 113° Southeast 482 555 37,200 -2,450 Descending Miami Center
14:00 26.5258 -82.7369 114° Southeast 477 549 34,700 -2,500 Descending Miami Center
14:01 26.4664 -82.6017 116° Southeast 477 549 32,200 -2,500 Descending Miami Center
14:02 26.3856 -82.4819 127° Southeast 477 549 29,700 -2,750 Descending Miami Center
14:03 26.2903 -82.3547 130° Southeast 482 555 26,700 -2,750 Descending Miami Center
14:04 26.1981 -82.2486 134° Southeast 476 548 24,200 -1,400 Descending Miami Center
14:05 26.1225 -82.1503 131° Southeast 470 541 23,900 -450 Descending Miami Center
14:06 26.0900 -82.0103 104° East 455 524 23,300 -1,300 Descending Miami Center
14:07 26.0594 -81.8678 103° East 456 525 21,300 -1,650 Descending Miami Center
14:08 26.0347 -81.7281 101° East 461 531 20,000 -1,150 Descending Miami Center
14:09 26.0081 -81.5908 102° East 461 531 19,000 -1,050 Descending Miami Center
14:10 25.9817 -81.4372 101° East 455 524 17,900 -950 Descending Miami Center
14:11 25.9603 -81.3186 101° East 449 517 17,100 -1,000 Descending Miami Center
14:12 25.9369 -81.1886 101° East 444 511 15,900 -600 Descending Miami Center
14:13 25.9158 -81.0536 100° East 438 504 15,900 56 Level Miami Center
14:14 25.8958 -80.9492 102° East 349 402 16,000 -991 Climbing Miami Center
14:15 25.8675 -80.8419 106° East 351 404 14,100 -2,297 Descending Miami Center
14:16 25.8558 -80.7261 96° East 334 384 11,100 -2,063 Descending Miami Center
14:17 25.8583 -80.6317 88° East 296 341 9,700 -1,603 Descending Miami Center
14:18 25.8667 -80.5489 84° East 293 337 8,000 -879 Descending Miami Center
14:19 25.8731 -80.4589 85° East 279 321 8,000  Level Miami Center
14:20 25.8817 -80.3669 84° East 299 344 8,000 -689 Level Miami Center
14:21 25.8900 -80.2794 84° East 284 327 6,600 -1,623 Descending Miami Center
14:22 25.8981 -80.1989 84° East 238 274 4,700 -1,869 Descending Miami Center
14:23 25.8633 -80.1656 139° Southeast 172 198 2,800 -1,574 Descending Miami Center
14:24 25.8169 -80.1850 201° Southwest 180 207 1,500 -931 Descending Miami Center
14:25 25.8056 -80.2239 252° West 137 158 1,000 -639 Descending Miami Center
14:26 25.8003 -80.2700 263° West 130 150 200 -716 Descending Miami Center
14:28 25.7833 -80.2833 254° West  Level FlightAware Approximate
14:35 25.7954 -80.2901 254° West  Level Estimated